TimeEST,TemperatureF,Dew PointF,Humidity,Sea Level PressureIn,VisibilityMPH,Wind Direction,Wind SpeedMPH,Gust SpeedMPH,PrecipitationIn,Events,Conditions,WindDirDegrees,DateUTC
12:53 AM,46.0,41.0,83,30.27,10.0,Calm,Calm,-,N/A,,Clear,0,2012-11-10 05:53:00
1:53 AM,45.0,39.9,82,30.27,10.0,Calm,Calm,-,N/A,,Clear,0,2012-11-10 06:53:00
2:53 AM,45.0,39.9,82,30.28,10.0,Calm,Calm,-,N/A,,Clear,0,2012-11-10 07:53:00
3:53 AM,44.1,39.0,82,30.28,10.0,Calm,Calm,-,N/A,,Clear,0,2012-11-10 08:53:00
4:53 AM,44.1,39.9,85,30.29,10.0,Calm,Calm,-,N/A,,Clear,0,2012-11-10 09:53:00
5:53 AM,46.0,42.1,86,30.30,8.0,Calm,Calm,-,N/A,,Clear,0,2012-11-10 10:53:00
6:53 AM,45.0,42.1,90,30.32,8.0,Calm,Calm,-,N/A,,Clear,0,2012-11-10 11:53:00
7:53 AM,50.0,46.9,89,30.34,7.0,Calm,Calm,-,N/A,,Clear,0,2012-11-10 12:53:00
8:53 AM,60.1,50.0,69,30.36,10.0,NNW,3.5,-,N/A,,Clear,340,2012-11-10 13:53:00
9:53 AM,66.9,51.1,57,30.36,10.0,NNE,5.8,-,N/A,,Clear,30,2012-11-10 14:53:00
10:53 AM,70.0,53.1,55,30.36,10.0,East,6.9,-,N/A,,Clear,80,2012-11-10 15:53:00
11:53 AM,71.1,55.0,57,30.35,10.0,Variable,5.8,-,N/A,,Clear,0,2012-11-10 16:53:00
12:53 PM,71.1,48.0,44,30.32,10.0,ENE,9.2,-,N/A,,Clear,60,2012-11-10 17:53:00
1:53 PM,72.0,50.0,46,30.30,10.0,NE,9.2,-,N/A,,Clear,50,2012-11-10 18:53:00
2:53 PM,71.1,52.0,51,30.30,10.0,East,10.4,-,N/A,,Clear,80,2012-11-10 19:53:00
3:53 PM,70.0,53.1,55,30.30,10.0,NE,6.9,-,N/A,,Clear,50,2012-11-10 20:53:00
4:53 PM,69.1,54.0,58,30.30,10.0,ENE,4.6,-,N/A,,Clear,60,2012-11-10 21:53:00
5:53 PM,64.0,54.0,70,30.31,10.0,NE,3.5,-,N/A,,Clear,40,2012-11-10 22:53:00
6:53 PM,60.1,54.0,80,30.32,10.0,Calm,Calm,-,N/A,,Clear,0,2012-11-10 23:53:00
7:53 PM,60.1,54.0,80,30.33,10.0,Calm,Calm,-,N/A,,Mostly Cloudy,0,2012-11-11 00:53:00
8:53 PM,59.0,54.0,83,30.34,10.0,Calm,Calm,-,N/A,,Mostly Cloudy,0,2012-11-11 01:53:00
9:53 PM,59.0,55.0,87,30.33,10.0,Calm,Calm,-,N/A,,Mostly Cloudy,0,2012-11-11 02:53:00
10:53 PM,57.9,54.0,87,30.32,10.0,Calm,Calm,-,N/A,,Scattered Clouds,0,2012-11-11 03:53:00
11:53 PM,57.9,54.0,87,30.32,5.0,Calm,Calm,-,N/A,,Scattered Clouds,0,2012-11-11 04:53:00